Regional Weather Roundup
Issued by NWS

Home | Current Version | Previous Version | Text Only | Print | Product List | Glossary On
Versions: 1 2 3 4 5 6 7 8 9 10 11 12 13 14 15 16 17 18 19 20 21 22 23 24 25 26 27 28 29 30 31 32 33 34 35 36 37 38 39 40 41 42 43 44 45 46 47 48 49 50
000
ASUS42 KTBW 020417
RWRFL
FLORIDA REGIONAL WEATHER ROUNDUP
NATIONAL WEATHER SERVICE TAMPA BAY RUSKIN FL
1200 AM EDT WED SEP 02 2015

NOTE: "FAIR" INDICATES FEW OR NO CLOUDS BELOW 12,000 FEET WITH NO
SIGNIFICANT WEATHER AND/OR OBSTRUCTIONS TO VISIBILITY.


FLZ001>010-012>015-112-114-115-020500-
PANHANDLE FLORIDA

CITY           SKY/WX    TMP DP  RH WIND       PRES   REMARKS
PENSACOLA      PTCLDY    81  71  71 W7        30.05R
PENSACOLA NAS  PTCLDY    79  72  79 CALM      30.05R
MILTON NAS     MOCLDY    78  71  79 NW6       30.06
CRESTVIEW      PTCLDY    75  72  90 CALM      30.07R
DUKE FIELD     PTCLDY    76  70  83 CALM      30.06R
VALPARAISO     PTCLDY    80  72  76 CALM      30.05S
MARY ESTHER    PTCLDY    80  71  73 NW3       30.04R
PANAMA CITY    FAIR      78  73  84 S3        30.05S
TYNDALL AFB    DRIZZLE   78  76  95 N3        30.05S
APALACHICOLA   MOCLDY    75  75 100 CALM      30.05R

STATION/POSITION SKY/WX   TEMP    WIND        PRES    WAVE   SWELL
                          AIR SEA DIR/SP/G            HT/PER HT/PER
                          (F)     (DEG/KT/KT) (MB)    (FT/S) (FT/S)
30.1N   87.6W              85 86  270/  6/  8 1017.1R   1/ 5
29.2N   88.2W              84 86  150/  4/  6 1018.1R   1/ 4   2/ 4
28.8N   86.0W              82 86   90/  4/  6 1018.0R   2/ 4   2/ 4
PANAMA CITY BEAC           84 85  130/  6/  7 1017.7R
CAPE SAN BLAS    NOT AVBL
TOWER C                    81     180/  2/  3 1017.5R
28.5N   84.5W              82 85  230/  4/  4 1017.6R   2/ 5   2/ 5

$$
FLZ011-016>038-118-127-128-134-139-239-020500-
NORTH FLORIDA

CITY           SKY/WX    TMP DP  RH WIND       PRES   REMARKS
MARIANNA       CLEAR     79  74  84 CALM      30.07R
TALLAHASSEE    MOCLDY    79  75  87 CALM      30.07R
PERRY          MOCLDY    78  75  91 E6        30.07R
CROSS CITY       N/A     77  75  93 CALM      30.06R
LAKE CITY      FAIR      75  75 100 CALM      30.08S
GAINESVILLE    PTCLDY    75  73  93 CALM      30.09R
MAYPORT NAS    MOCLDY    80  76  87 CALM      30.08F
JACKSONVILLE   MOCLDY    77  76  96 E3        30.08S
JAX NAS        PTCLDY    85  75  72 S5        30.09S
JAX CRAIG      PTCLDY    79  76  90 CALM      30.08F
JAX CECIL      PTCLDY    75  75 100 CALM      30.09S
ST AUGUSTINE   MOCLDY    79  75  87 CALM      30.09F

STATION/POSITION SKY/WX   TEMP    WIND        PRES    WAVE   SWELL
                          AIR SEA DIR/SP/G            HT/PER HT/PER
                          (F)     (DEG/KT/KT) (MB)    (FT/S) (FT/S)
SHELL POINT                78      60/  2/  6   N/A
KEATON BEACH               77      70/  7/  8 1018.0R
CEDAR KEY                  83     180/  9/ 11 1018.5R
FERNANDINA                 78 85  100/  4/  8 1018.2R
30.7N   81.3W                 85                N/A     2/ 8
MAYPORT                    82 85  140/  1/  3 1019.2R
31.4N   80.9W              82 84  160/  6/  8 1019.0F   2/ 7   2/ 7
ST AUGUSTINE               82 83  180/  2/  3 1019.5F

$$
FLZ040-043>046-052-053-057-058-063-144-020500-
INTERIOR CENTRAL FLORIDA

CITY           SKY/WX    TMP DP  RH WIND       PRES   REMARKS
OCALA          PTCLDY    75  73  94 CALM      30.08R
THE VILLAGES     N/A     79  77  94 E3        29.99R
LEESBURG       MOCLDY    80  75  84 E5        30.09R
SANFORD        PTCLDY    80  77  90 E3        30.08S
ORLANDO EXEC   MOCLDY    81  78  91 SE5       30.08S
ORLANDO INTL   MOCLDY    81  76  84 SE6       30.08S
WINTER HAVEN   MOCLDY    79  77  94 CALM      30.09S
LAKELAND         N/A    N/A N/A N/A MISG        N/A
BARTOW         FAIR      77  77 100 CALM      30.09S
OKEECHOBEE       N/A     77  72  83 CALM      30.09R

$$
FLZ041-047-054-059-064-141-147-020500-
EAST CENTRAL FLORIDA

CITY           SKY/WX    TMP DP  RH WIND       PRES   REMARKS
DAYTONA BEACH  MOCLDY    79  77  94 CALM      30.08S
DELAND           N/A     77  75  94 CALM      30.10R
CAPE CANAVERAL MOCLDY    83  77  81 S10       30.06F
PATRICK AFB    CLOUDY    84  78  83 SE12      30.07S HX  95
MELBOURNE      CLOUDY    82  76  81 S6        30.07S
VERO BEACH     MOCLDY    83  75  77 SE5       30.08F
FT PIERCE      FAIR      79  76  90 CALM      30.08S
STUART         PTCLDY    79  73  83 S5        30.09S

STATION/POSITION SKY/WX   TEMP    WIND        PRES    WAVE   SWELL
                          AIR SEA DIR/SP/G            HT/PER HT/PER
                          (F)     (DEG/KT/KT) (MB)    (FT/S) (FT/S)
28.5N   80.2W              84 84  140/ 10/ 14 1018.7R
28.9N   78.5W              84 86  140/  4/  6 1019.3R
TRIDENT PIER               83 87  130/  6/  9 1019.0R
28.4N   80.5W                 85                N/A     2/10
27.5N   80.2W                 84                N/A     2/11

$$
FLZ050-056-061-142-242-148-248-149-249-151-251-155-255-
160-260-020500-
WEST CENTRAL FLORIDA

CITY           SKY/WX    TMP DP  RH WIND       PRES   REMARKS
CRYSTAL RIVER  FAIR      75  73  94 CALM      30.07R
INVERNESS      FAIR      75  75 100 CALM      30.09R
BROOKSVILLE    MOCLDY    76  74  93 SE3       30.08S
CLEARWATER     MOCLDY    79  76  90 CALM      30.06S
TAMPA INTL     CLOUDY    81  75  82 CALM      30.07S
TAMPA EXEC     MOCLDY    79  75  89 CALM      30.08R
PLANT CITY     MOCLDY    79  79 100 E5        30.10R
MACDILL AFB    MOCLDY    78  78 100 SE3       30.07R
PETER O KNIGHT MOCLDY    81  79  94 CALM      30.07S
ST PETERSBURG  MOCLDY    83  76  79 SW3       30.05S
SARASOTA       MOCLDY    78  76  93 E3        30.05S
VENICE         FAIR      81  77  89 E6        30.08S

STATION/POSITION SKY/WX   TEMP    WIND        PRES    WAVE   SWELL
                          AIR SEA DIR/SP/G            HT/PER HT/PER
                          (F)     (DEG/KT/KT) (MB)    (FT/S) (FT/S)
CEDAR KEY                  83     180/  9/ 11 1018.5R
28.5N   84.5W              82 85  230/  4/  4 1017.6R   2/ 5   2/ 5
27.3N   84.2W                 86                N/A     2/ 6
CLEARWATER BEACH           81 85  120/  3/  5 1018.1S
MIDDLE TAMPA BAY                  160/  5/  6 1018.3R
VENICE                     81 87   80/  4/  5 1017.8S

$$
FLZ066-069-070-075>078-162-262-165-265-020500-
SOUTHWEST FLORIDA AND KEYS

CITY           SKY/WX    TMP DP  RH WIND       PRES   REMARKS
PUNTA GORDA    CLOUDY    80  78  94 SE3       30.08F
FT MYERS       MOCLDY    79  75  87 SE3       30.06S
SOUTHWEST INTL MOCLDY    80  75  84 E5        30.07S
NAPLES         MOCLDY    81  76  84 SE8       30.07R
MARCO ISLAND   PTCLDY    79  72  78 E5        30.07S
MARATHON       CLEAR     85  77  77 E8        30.07S HX  95
KEY WEST NAS   PTCLDY    85  76  74 E12       30.06F
KEY WEST INTL  PTCLDY    86  76  71 E8        30.07F HX  96

STATION/POSITION SKY/WX   TEMP    WIND        PRES    WAVE   SWELL
                          AIR SEA DIR/SP/G            HT/PER HT/PER
                          (F)     (DEG/KT/KT) (MB)    (FT/S) (FT/S)
VENICE                     81 87   80/  4/  5 1017.8S
NAPLES                        87              1019.1F
26.0N   85.6W              84 86  110/  6/  8 1017.7S   2/ 5   2/ 5
DRY TORTUGAS                                    N/A
NW FL BAY                  85      80/ 12/ 14 1018.1
SAND KEY                   86        CALM     1018.1S
LONG KEY                   85 87  100/ 11/ 12 1018.9F
MOLASSES REEF              85 87  110/  8/  9 1018.3R

$$
FLZ067-068-071>074-168-172>174-020500-
SOUTHEAST FLORIDA

CITY           SKY/WX    TMP DP  RH WIND       PRES   REMARKS
W PALM BEACH   PTCLDY    83  74  74 SE7       30.09S
FT LAUDER-EXEC PTCLDY    84  75  74 E7        30.08S
FT LAUDERDALE  PTCLDY    83  76  79 E7        30.08S
POMPANO BEACH  CLEAR     85  75  72 SE7       30.08F
PEMBROKE PINES CLEAR     83  76  79 E6        30.09F
OPA LOCKA      CLEAR     83  77  82 E3        30.09S
MIAMI          PTCLDY    83  77  82 SE5       30.08F
WEST KENDALL   CLEAR     79  74  84 CALM      30.08F
HOMESTEAD      CLEAR     82  76  82 NE5       30.07F

STATION/POSITION SKY/WX   TEMP    WIND        PRES    WAVE   SWELL
                          AIR SEA DIR/SP/G            HT/PER HT/PER
                          (F)     (DEG/KT/KT) (MB)    (FT/S) (FT/S)
PORT EVERGLADES            85     110/  3/  6 1018.6F
VIRGINIA KEY               85 87  100/  4/  6 1018.5R
LAKE WORTH                 85 87  130/  7/ 10 1018.5S
SETTLEMENT POINT           83     140/  7/  8 1019.4F

$$




USA.gov is the U.S. government's official web portal to all federal, state and local government web resources and services.